Home > Weather > Winston-Salem > Past weeks

Flag for USA Past Weather in Winston-Salem, North Carolina, USA — Yesterday and Last 2 Weeks

Now
69 °F

Low clouds.


Feels Like: 69 °F
Forecast: 66 / 84 °F
Wind: 6 mph from Northeast

Location: Smith Reynolds Airport

Current Time: Jun 30, 2016 at 12:03:48 PM

Latest Report: Jun 30, 2016 at 10:54 AM


Visibility: 8 mi

Pressure: 30.06 "Hg

Humidity: 84%

Dew Point: 64 °F

Location of Winston-SalemLocation

Past Weather in Winston-Salem — Graph

°F

Winston-Salem Temperature Yesterday

Maximum temperature yesterday: 87 °F (at 3:54 PM)
Minimum temperature yesterday: 66 °F (at 5:54 AM)
Average temperature yesterday: 75 °F

High & Low Weather Summary for the Past Weeks

 TemperatureHumidityPressure
High94 °F (Jun 16, 4:54 PM)96% (Jun 26, 7:00 AM)30.41 "Hg (Jun 26, 7:00 AM)
Low58 °F (Jun 19, 5:54 AM)23% (Jun 19, 3:54 PM)29.68 "Hg (Jun 16, 11:54 PM)
Average77 °F65%30.03 "Hg
* Reported Jun 15 10:54 AM — Jun 30 10:54 AM, Winston-Salem, Weather by CustomWeather, © 2016

Note: Actual official high and low records may vary slightly from our data, if they occured in-between our weather recording intervals... More about our weather records

Advertising

Winston-Salem Weather History for the Previous 24 Hours

Scroll right to see more
 ConditionsComfort  
Time TempWeatherWind HumidityBarometerVisibility
10:54 AM
Thu, Jun 30
69 °FLow clouds.6 mph84%30.06 "Hg8 mi
9:54 AM68 °FLow clouds.8 mph87%30.06 "Hg10 mi
8:54 AM68 °FLow clouds.9 mph84%30.05 "Hg10 mi
7:54 AM67 °FPartly sunny.7 mph87%30.02 "Hg10 mi
6:54 AM66 °FClear.8 mph87%30.01 "Hg10 mi
5:54 AM67 °FClear.7 mph90%30.00 "Hg10 mi
4:54 AM67 °FClear.3 mph90%29.98 "Hg8 mi
3:54 AM67 °FClear.No wind93%29.99 "Hg9 mi
2:54 AM68 °FPassing clouds.No wind90%30.00 "Hg10 mi
1:54 AM68 °FPassing clouds.No wind90%30.01 "Hg10 mi
12:54 AM69 °FClear.No wind87%30.01 "Hg10 mi
11:54 PM
Wed, Jun 29
70 °FPassing clouds.3 mph84%30.01 "Hg10 mi
10:54 PM70 °FPassing clouds.No wind84%29.99 "Hg10 mi
9:54 PM70 °FPassing clouds.7 mph84%30.00 "Hg10 mi
8:54 PM71 °FMostly cloudy.No wind87%29.96 "Hg10 mi
7:54 PM73 °FMostly cloudy.No wind76%29.93 "Hg10 mi
7:02 PM72 °FScattered clouds.9 mph76%29.97 "Hg10 mi
6:54 PM72 °FThundershowers. Scattered clouds.12 mph76%29.94 "Hg10 mi
5:54 PM73 °FThundershowers. Broken clouds.No wind84%29.93 "Hg10 mi
4:54 PM85 °FThunderstorms. Partly sunny.3 mph48%29.91 "Hg10 mi
3:54 PM87 °FScattered clouds.6 mph45%29.91 "Hg10 mi
2:54 PM85 °FScattered clouds.7 mph46%29.93 "Hg10 mi
1:54 PM85 °FPartly sunny.5 mph48%29.94 "Hg10 mi
12:54 PM85 °FScattered clouds.6 mph50%29.96 "Hg10 mi
Weather by CustomWeather, © 2016

See weather overviewHow to use our weather pages